Wetbulb
52.31 51.25 50.19 49.12 48.45 48.41 48.50 48.27 47.87 48.36 49.22 49.58 49.49 49.40 49.13 48.68 48.23 48.14 48.23 48.14 47.14 46.15 45.34 44.80 44.17 43.62 43.26 43.32 42.87 42.42 42.11 42.07 41.63 41.08 40.63 40.54 40.54 40.46 40.29 40.25 40.22 40.24 40.09 40.12 40.05 39.69 39.16 38.91 38.30 37.69 37.23 37.30 37.38 37.58 38.04 38.66 38.82 38.79 38.64 38.78 38.78 39.15 39.63 39.91 40.09 40.14 39.99 39.72 39.64
52.11 51.44 50.30 48.08 47.55 48.09 48.68 48.59 48.45 48.82 49.31 49.49 49.13 48.77 48.41 48.05 47.68 47.50 47.05 46.51 45.61 44.80 44.08 43.63 43.26 42.99 42.81 42.64 42.50 42.42 42.38 42.47 42.20 41.75 41.39 41.12 40.99 40.81 40.55 40.36 40.34 40.27 40.25 40.09 40.16 39.91 39.25 38.50 37.71 37.04 36.75 37.03 37.16 37.24 37.47 38.01 38.27 38.29 38.15 38.11 38.40 38.85 39.38 39.45 39.65 39.46 39.24 39.16 39.53
52.72 52.01 51.39 50.55 50.08 49.52 49.12 48.86 49.13 49.13 49.13 48.68 48.59 48.41 48.14 47.82 47.37 46.74 46.06 45.52 45.12 44.49 43.95 43.41 43.00 42.86 42.78 42.86 42.87 42.96 42.92 42.74 42.47 42.20 41.66 41.25 41.03 40.77 40.50 40.22 40.10 39.87 39.79 39.80 39.90 39.74 39.22 38.29 37.47 36.82 36.62 37.00 37.04 36.81 36.89 37.73 38.22 38.15 37.92 37.81 38.11 38.49 38.72 38.38 38.53 38.68 38.87 39.02 39.54
52.89 52.27 51.82 51.55 51.09 50.31 49.47 48.80 48.67 48.58 48.45 48.00 47.91 47.82 47.55 47.37 46.92 46.47 45.84 45.39 45.08 44.67 44.14 43.60 43.41 43.37 43.37 43.01 42.92 43.01 42.83 42.33 42.29 41.66 40.98 40.61 40.44 40.22 40.04 39.78 39.51 39.30 39.33 39.44 39.33 39.22 39.04 38.63 37.85 37.06 36.73 36.87 36.85 36.69 36.92 37.50 38.07 37.92 37.81 37.77 38.19 38.19 38.00 37.64 37.99 38.22 38.57 38.95 39.45
52.77 52.45 52.08 51.86 51.42 50.77 49.98 49.32 48.93 48.53 48.22 48.00 47.59 47.32 47.05 46.51 46.15 45.88 45.44 44.81 44.45 44.19 44.15 44.02 43.78 43.60 43.33 42.94 42.53 42.43 42.02 41.66 40.89 40.53 40.43 39.98 39.81 39.77 39.69 39.56 39.33 39.24 39.38 39.48 39.44 39.33 39.18 39.27 38.58 38.13 38.07 38.02 37.28 36.78 36.73 37.35 37.54 37.65 37.61 37.68 38.07 38.07 37.83 37.48 37.75 38.10 38.41 38.56 38.76
52.29 52.20 52.06 51.65 51.06 50.45 49.61 48.96 48.83 48.52 48.26 48.04 47.64 47.14 46.70 46.16 45.75 45.31 44.73 44.19 44.15 44.24 44.11 43.61 43.16 42.79 42.62 42.72 42.22 41.81 41.53 41.21 40.76 40.49 40.13 39.81 39.72 39.59 39.51 39.47 39.47 39.51 39.42 39.47 39.39 39.30 39.17 39.00 38.57 38.51 38.43 38.21 37.77 37.87 38.21 38.16 37.74 37.55 37.30 36.89 37.36 37.59 37.58 37.46 37.54 37.89 38.13 38.10 38.21
51.86 51.74 51.36 51.00 50.25 49.67 49.17 48.73 48.82 48.51 48.07 47.72 47.54 46.92 46.25 46.25 45.62 45.26 44.91 44.56 44.29 44.02 43.61 42.80 42.61 42.52 42.35 42.31 41.99 41.71 41.30 40.95 40.85 40.50 40.23 39.90 39.90 39.77 39.77 39.60 39.60 39.51 39.59 39.50 39.33 39.33 39.15 39.06 38.55 38.19 37.92 37.74 37.65 37.66 38.01 38.50 38.72 38.03 37.14 36.18 36.68 37.05 37.38 37.68 37.61 37.65 37.77 37.75 37.63
51.11 51.20 50.85 50.17 49.76 49.41 49.01 48.52 48.38 48.21 47.72 47.37 47.23 47.05 46.79 46.25 45.63 45.36 45.31 44.91 44.38 43.93 43.52 43.11 43.03 42.85 42.58 42.40 42.07 41.75 41.48 41.25 40.98 40.80 40.62 40.35 40.17 40.13 40.22 40.23 39.96 39.69 39.60 39.69 39.63 39.45 39.36 39.35 38.85 38.40 38.04 37.91 37.55 37.61 37.66 38.02 37.89 37.61 37.02 36.15 36.16 36.49 36.89 37.10 37.22 37.25 37.35 37.28 37.27
50.31 51.05 50.97 49.98 49.33 49.08 48.81 48.51 48.43 47.95 47.46 47.14 47.28 47.32 47.23 46.96 45.89 45.23 44.83 44.51 44.11 43.98 43.84 43.62 43.57 43.40 43.08 42.76 42.52 42.29 42.11 41.84 41.48 41.39 41.25 41.03 40.74 40.65 40.47 40.38 40.20 39.92 39.96 39.92 39.78 39.69 39.51 39.35 38.94 38.67 38.45 38.18 37.73 37.41 37.40 37.49 37.00 36.57 36.22 35.84 35.61 35.78 36.15 36.64 36.72 36.94 37.05 36.96 36.76
48.94 50.44 50.87 49.86 48.98 48.67 48.62 48.50 48.38 47.94 47.46 47.05 47.28 47.23 46.96 46.16 45.72 45.28 44.79 44.34 44.16 44.07 43.98 43.93 43.93 43.93 43.79 43.43 43.30 42.95 42.65 42.38 42.11 41.88 41.71 41.52 41.23 41.14 41.13 41.11 40.58 40.25 40.01 40.10 40.19 40.01 39.78 39.44 38.91 38.70 38.57 38.43 37.84 37.29 36.98 36.86 36.44 35.94 35.51 35.39 35.03 35.16 35.42 35.85 36.23 36.47 36.52 36.36 36.25
47.47 49.45 50.59 50.19 49.15 48.62 48.35 48.46 48.11 47.85 47.54 47.14 47.14 47.10 46.83 46.03 45.95 45.51 45.10 44.92 44.51 44.20 44.07 44.34 44.34 44.43 44.16 43.86 43.61 43.35 43.21 43.11 42.88 42.62 42.31 41.95 41.83 41.72 41.76 41.49 40.86 40.40 40.15 40.00 40.17 40.20 39.92 39.56 38.83 38.47 38.23 38.21 37.52 36.85 36.46 36.40 35.99 35.53 35.15 34.82 34.62 34.49 34.64 35.03 35.49 35.84 35.93 35.95 35.76
46.67 48.56 50.15 50.45 49.46 48.69 48.31 48.24 48.15 48.02 47.70 47.22 47.00 46.78 46.60 46.43 46.08 45.51 45.16 45.20 44.70 44.31 44.32 44.55 44.64 44.59 44.33 44.03 44.12 43.98 43.85 43.71 43.31 42.91 42.56 42.12 42.05 41.98 41.94 41.54 40.91 40.41 40.00 39.86 40.01 40.16 39.99 39.36 38.60 37.99 37.48 37.09 36.65 36.24 35.95 35.92 35.47 34.95 34.54 34.34 34.30 34.07 34.05 34.23 34.76 35.12 35.34 35.49 34.97
45.71 47.56 49.49 50.31 49.46 48.82 48.35 48.10 48.11 48.06 48.01 47.57 47.04 46.64 46.34 46.12 45.82 45.42 45.16 45.07 44.72 44.50 44.55 44.73 44.73 44.69 44.60 44.43 44.52 44.56 44.34 43.90 43.59 43.02 42.54 42.10 42.02 41.95 41.77 41.28 40.79 40.44 40.00 39.78 39.91 39.97 39.69 38.93 37.99 37.18 36.52 36.08 35.97 35.76 35.70 35.56 35.08 34.54 34.02 33.87 33.86 33.69 33.59 33.62 34.00 34.31 34.65 34.63 34.14
45.10 46.78 48.62 49.88 49.18 48.61 48.13 48.02 47.99 48.08 48.03 47.62 47.21 46.73 46.29 46.16 45.60 45.25 45.08 45.03 44.81 44.86 44.95 44.86 44.86 44.78 44.78 44.73 44.73 44.56 44.39 43.87 43.43 43.00 42.52 42.12 42.08 42.04 41.87 41.34 40.90 40.43 40.09 39.67 39.55 39.43 38.90 38.07 37.28 36.58 35.95 35.45 35.49 35.47 35.62 35.44 34.96 34.39 34.02 33.77 33.48 33.21 33.15 33.08 33.36 33.61 33.85 33.59 33.26
44.70 45.95 47.76 49.33 48.89 48.37 48.01 47.93 48.04 48.13 48.03 47.58 47.22 46.73 46.29 46.08 45.46 45.16 45.16 45.08 45.16 45.12 45.16 44.99 44.95 44.95 44.95 44.86 44.65 44.56 44.26 43.61 43.27 42.92 42.57 42.27 42.32 42.15 41.77 41.16 40.70 40.08 39.47 38.88 38.48 38.18 37.95 37.31 36.72 36.24 35.72 35.30 35.24 35.33 35.45 35.39 34.97 34.64 34.26 33.94 33.49 33.09 32.85 32.71 33.01 33.23 33.26 33.12 32.64
44.33 45.16 46.63 48.55 48.72 48.29 47.89 47.99 48.13 48.22 48.08 47.58 47.12 46.68 46.21 45.86 45.68 45.51 45.16 45.03 45.03 45.12 45.25 45.08 45.16 45.12 44.99 44.64 44.60 44.30 44.09 43.49 43.19 42.80 42.54 42.32 42.16 41.92 41.47 40.73 39.91 39.15 38.45 37.80 37.26 36.94 36.81 36.72 36.34 35.97 35.65 35.21 35.20 35.12 35.15 35.11 34.97 34.66 34.34 33.95 33.51 33.01 32.71 32.62 32.82 33.07 33.16 33.10 32.46
44.10 44.46 45.52 47.60 48.18 48.11 47.94 48.17 48.26 48.22 48.08 47.57 47.07 46.64 46.16 45.82 45.73 45.33 44.90 44.90 45.16 45.25 45.25 45.20 45.25 45.16 44.95 44.37 44.25 44.00 43.74 43.49 43.07 42.81 42.47 42.26 41.98 41.49 40.77 39.81 38.94 38.14 37.49 36.78 36.38 36.10 36.06 36.18 36.21 36.03 35.73 35.43 35.17 34.99 34.85 34.70 34.51 34.26 33.98 33.67 33.32 32.91 32.60 32.45 32.73 32.80 32.88 32.74 32.24
44.16 43.98 44.49 46.36 47.59 48.02 48.02 48.16 48.34 48.25 48.03 47.61 47.08 46.72 46.33 45.90 45.64 45.25 45.12 45.08 45.51 45.51 45.34 45.38 45.46 45.34 44.99 44.59 44.20 43.96 43.66 43.37 43.12 42.82 42.62 42.29 41.55 40.87 39.88 38.87 38.06 37.38 36.90 36.42 36.17 35.94 35.82 35.95 36.10 36.02 35.86 35.72 35.40 35.18 34.78 34.54 34.18 33.79 33.48 33.23 32.82 32.59 32.50 32.42 32.57 32.70 32.71 32.47 32.08
44.18 43.78 43.61 44.50 46.63 47.69 47.97 47.84 48.11 48.20 48.06 47.79 47.38 46.98 46.54 46.03 45.68 45.51 45.42 45.38 45.55 45.64 45.51 45.34 45.38 45.34 44.94 44.42 44.12 43.70 43.29 43.33 43.21 42.96 42.54 41.97 40.92 39.89 38.80 37.77 37.25 36.92 36.59 36.48 36.26 36.11 36.02 35.88 35.98 35.92 35.88 35.65 35.46 35.15 34.74 34.40 33.93 33.47 33.05 32.66 32.37 32.25 32.24 32.32 32.59 32.69 32.68 32.48 31.99
44.06 43.79 43.27 42.98 45.19 46.90 47.91 47.93 48.24 48.33 48.24 48.01 47.52 47.03 46.59 46.11 45.81 45.72 45.55 45.55 45.64 45.72 45.68 45.60 45.42 45.12 44.59 44.25 43.96 43.59 43.38 43.16 43.12 42.71 42.01 41.23 40.00 38.76 37.62 36.77 36.59 36.44 36.55 36.47 36.29 36.11 35.94 35.80 35.96 35.97 35.76 35.54 35.07 34.85 34.51 34.02 33.52 33.07 32.74 32.37 32.10 31.95 31.95 32.21 32.36 32.57 32.56 32.36 31.92
43.87 44.11 43.69 42.52 43.52 45.46 47.30 48.22 48.58 48.50 48.38 48.02 47.53 47.04 46.68 46.24 45.94 45.81 45.76 45.72 45.85 45.85 45.64 45.60 45.38 44.99 44.51 43.96 43.58 43.29 43.15 42.93 42.61 42.04 41.10 39.98 38.90 37.83 36.98 36.29 36.11 36.19 36.29 36.33 36.15 35.91 35.70 35.67 35.90 35.90 35.71 35.33 34.77 34.40 33.93 33.44 32.91 32.53 32.29 32.13 31.93 31.78 31.86 32.06 32.17 32.20 32.19 32.05 31.75
43.79 44.29 44.22 43.27 42.73 43.98 45.94 47.84 48.54 48.73 48.47 47.94 47.53 47.18 46.65 46.29 45.94 45.85 45.98 46.03 45.94 46.08 45.99 45.81 45.29 44.82 44.43 43.88 43.33 42.95 42.55 42.25 41.85 41.01 40.02 38.89 38.01 37.27 36.58 36.19 35.93 35.83 35.86 35.89 35.69 35.59 35.63 35.77 35.86 35.71 35.46 34.89 34.38 33.98 33.44 32.96 32.51 32.05 31.74 31.56 31.35 31.26 31.34 31.57 31.69 31.69 31.61 31.55 31.40
43.67 44.22 44.45 44.09 42.87 42.74 43.86 46.29 47.86 48.42 48.48 48.08 47.76 47.36 46.83 46.30 46.03 46.07 46.07 46.29 45.99 45.95 45.99 45.64 45.08 44.69 44.35 43.92 43.28 42.63 42.03 41.46 40.88 39.97 39.11 38.23 37.41 36.83 36.40 36.26 36.08 35.75 35.49 35.44 35.49 35.60 35.63 35.56 35.56 35.34 35.02 34.51 33.99 33.52 33.03 32.76 32.25 31.65 31.19 30.78 30.63 30.59 30.57 30.84 30.92 30.88 30.86 30.81 30.84
43.38 43.97 44.38 44.21 43.22 42.60 42.88 44.85 46.66 47.66 47.94 47.90 47.81 47.40 46.92 46.52 46.30 46.03 46.08 46.34 45.86 45.59 45.42 45.16 44.82 44.60 44.34 43.70 43.00 42.19 41.29 40.51 39.74 38.93 38.27 37.70 37.08 36.57 36.14 36.11 35.93 35.82 35.70 35.65 35.66 35.66 35.48 35.01 35.10 34.95 34.56 34.20 33.72 33.32 33.05 32.71 32.14 31.48 30.79 30.20 29.98 29.87 29.83 29.98 30.13 30.17 30.17 30.20 30.34
42.99 43.54 43.84 43.87 43.29 42.51 42.40 43.58 45.51 46.90 47.62 47.98 47.89 47.58 47.09 46.52 46.25 46.03 45.86 45.99 45.64 45.33 45.03 44.86 44.52 44.39 43.88 43.07 42.12 41.52 40.72 40.04 39.20 38.44 37.64 37.16 36.68 36.21 36.00 35.86 35.86 35.97 35.79 35.47 35.62 35.62 35.27 34.60 34.90 34.64 34.30 33.88 33.40 33.15 32.93 32.57 32.06 31.30 30.59 30.05 29.70 29.40 29.27 29.42 29.80 29.87 30.04 30.21 30.55
42.47 42.98 43.33 43.42 43.15 42.49 42.14 42.54 44.74 46.50 47.78 48.06 47.80 47.58 47.18 46.69 46.30 45.90 45.77 45.73 45.47 45.07 44.60 44.26 43.96 43.20 42.54 42.12 41.38 40.83 40.33 39.72 39.11 38.23 37.34 36.68 36.21 36.00 35.90 35.86 35.89 36.01 35.99 35.55 35.27 35.07 35.02 34.89 34.71 34.11 33.79 33.86 33.19 32.68 32.25 31.90 31.48 30.98 30.49 30.09 29.73 29.38 29.12 29.04 29.40 29.73 30.16 30.57 31.13
41.87 42.36 42.68 42.95 42.83 42.43 42.03 42.07 44.17 46.22 47.68 48.18 47.71 47.36 46.96 46.69 46.34 45.90 45.38 45.20 44.86 44.38 43.94 43.47 42.84 41.79 41.05 41.34 40.80 40.34 39.93 39.52 38.91 38.11 37.37 36.64 36.03 35.72 35.75 35.86 36.12 36.20 35.95 35.49 35.06 34.84 34.72 34.77 34.47 34.05 33.75 33.83 33.13 32.35 31.59 30.83 30.61 30.45 30.25 30.10 30.02 29.78 29.57 29.25 29.28 29.56 30.04 30.59 31.50
41.31 41.86 42.32 42.52 42.34 42.33 42.28 42.13 43.71 45.52 47.30 48.04 47.60 47.26 46.91 46.56 46.21 45.60 45.03 44.86 44.20 43.50 42.87 42.25 41.50 40.97 40.71 40.55 40.37 40.16 39.89 39.52 38.89 38.18 37.47 36.64 36.07 35.79 35.72 35.78 36.20 36.17 35.84 35.24 35.02 34.78 34.65 34.61 34.36 33.99 33.48 32.68 32.57 31.95 31.06 30.40 30.05 30.09 30.24 30.19 30.21 30.13 30.05 29.79 29.78 29.93 30.27 30.76 31.64
40.98 41.61 42.08 42.06 41.94 42.05 42.13 42.15 43.47 45.35 46.93 47.73 47.44 47.15 46.86 46.16 45.77 45.20 44.64 44.20 43.28 42.33 41.62 40.90 40.36 40.10 40.10 39.84 40.03 39.92 39.71 39.44 38.87 38.19 37.47 36.57 36.11 35.90 35.96 35.99 36.05 35.78 35.40 35.08 34.94 34.85 34.67 34.42 33.98 33.51 33.01 32.39 31.79 31.28 30.73 30.26 30.12 30.17 30.25 30.33 30.36 30.34 30.25 30.19 30.26 30.51 30.76 31.12 31.65
40.71 40.99 41.19 41.44 41.66 41.80 41.92 42.17 43.62 45.45 47.01 47.37 46.91 46.54 46.20 45.47 44.90 44.29 43.68 42.95 42.22 41.42 40.76 40.40 39.72 39.42 39.33 39.21 39.50 39.41 39.20 38.97 38.62 37.99 37.30 36.41 36.07 36.08 36.15 36.06 36.16 35.87 35.40 35.03 34.89 34.80 34.61 34.17 33.55 32.83 32.19 31.71 31.33 31.05 30.89 30.57 30.42 30.28 30.12 30.12 30.33 30.34 30.36 30.49 30.69 30.89 31.00 31.10 31.17
40.32 40.47 40.62 40.95 41.39 41.53 41.85 42.31 43.84 45.51 46.74 46.75 46.27 45.89 45.55 44.73 44.12 43.65 43.13 42.40 41.58 40.68 40.15 39.98 39.35 39.08 39.10 39.54 38.87 38.66 38.63 38.64 38.23 37.77 37.19 36.58 36.14 36.08 36.26 36.36 36.13 35.71 35.23 35.01 34.96 34.70 34.38 33.84 32.93 32.15 31.54 31.11 30.85 30.95 31.01 30.72 30.44 30.25 29.96 29.87 29.98 30.18 30.33 30.57 30.74 30.85 30.92 30.91 30.60
40.20 40.21 40.35 40.54 40.93 41.38 41.85 42.21 43.70 45.18 46.20 46.16 45.67 45.38 44.90 44.42 43.76 43.56 43.35 42.22 40.96 40.07 39.62 39.30 38.83 38.66 38.64 38.82 38.10 37.85 37.94 38.06 37.73 37.43 37.21 36.85 36.57 36.44 36.33 36.19 35.85 35.33 34.84 35.10 34.83 34.47 34.01 33.26 32.40 31.65 31.03 30.54 30.49 30.75 30.89 30.65 30.32 30.04 29.80 29.67 29.73 29.93 30.10 30.18 30.51 30.77 30.83 30.74 30.41
40.11 40.03 39.91 40.05 40.57 41.07 41.63 41.91 43.49 44.94 46.03 45.90 45.49 45.25 44.82 44.28 43.59 43.30 42.74 41.51 40.41 39.62 39.09 38.67 38.24 38.04 37.96 37.98 37.31 37.16 37.32 37.59 37.32 37.11 36.97 36.90 36.73 36.44 36.14 35.87 35.69 35.19 34.74 34.86 34.56 34.06 33.47 32.69 31.84 31.11 30.38 30.04 30.17 30.42 30.47 30.18 29.76 29.44 29.24 29.25 29.41 29.70 29.95 30.12 30.29 30.48 30.65 30.66 30.45
40.24 39.90 39.74 39.85 40.40 40.96 41.52 41.89 43.82 45.39 46.26 45.87 45.41 45.16 44.73 44.03 42.86 42.18 41.46 40.50 39.86 39.35 38.82 38.50 38.30 37.97 37.86 37.98 37.15 36.97 37.06 36.94 36.98 37.05 37.01 36.91 36.80 36.33 35.90 35.72 35.41 35.19 34.81 34.67 34.19 33.59 32.96 32.07 31.22 30.54 29.93 29.54 29.71 29.79 29.67 29.26 28.81 28.50 28.42 28.45 28.71 29.21 29.48 29.81 30.05 30.18 30.33 30.33 30.19
40.40 40.06 39.51 39.44 40.05 40.77 41.27 41.86 43.75 45.29 45.95 45.03 44.56 44.47 44.17 43.31 41.87 41.03 40.44 39.87 39.50 39.09 38.67 38.31 38.41 38.09 37.72 37.60 37.31 37.16 37.02 36.62 36.73 36.84 36.84 36.70 36.44 36.09 35.65 35.54 35.32 35.06 34.61 34.41 33.81 33.06 32.28 31.48 30.65 30.06 29.37 28.87 28.90 28.81 28.50 28.17 27.81 27.57 27.45 27.55 27.79 28.10 28.43 28.96 29.22 29.40 29.70 29.80 29.64
40.60 39.70 38.64 38.26 39.05 39.79 40.68 41.40 42.82 44.09 44.09 42.02 41.61 42.04 42.46 42.01 40.93 40.36 39.94 39.50 39.10 38.59 38.17 37.71 37.80 37.39 37.06 37.09 37.02 36.95 36.73 36.59 36.29 36.21 36.28 36.36 36.24 35.84 35.49 35.22 35.00 34.65 34.36 34.02 33.34 32.55 31.70 30.96 30.20 29.55 28.94 28.40 28.05 27.77 27.55 27.27 26.95 26.75 26.66 26.68 26.69 26.90 27.27 27.67 28.02 28.48 28.89 29.01 28.90
40.45 39.45 38.17 37.68 38.45 39.17 39.97 40.84 41.90 42.70 42.39 39.68 39.51 40.05 40.65 40.63 39.98 39.81 39.65 39.16 38.83 38.20 37.39 36.85 36.53 36.19 36.04 36.29 36.36 36.52 36.55 36.43 35.91 35.60 35.70 35.70 35.77 35.70 35.32 34.92 34.58 34.08 33.64 33.49 32.79 31.93 31.23 30.58 29.85 29.04 28.30 27.65 27.22 26.92 26.72 26.41 26.21 26.12 26.05 25.91 25.97 26.18 26.46 26.73 27.08 27.48 27.78 28.00 27.92
39.83 39.24 38.29 37.95 38.51 39.01 39.56 40.07 41.18 41.89 41.62 39.77 39.70 39.69 39.73 39.58 39.28 39.17 39.05 38.47 38.19 37.57 36.59 35.81 35.35 35.23 35.43 36.04 36.60 36.57 36.33 36.16 35.63 35.39 35.24 35.39 35.48 35.38 35.10 34.65 34.28 33.53 32.92 32.79 32.14 31.58 30.96 30.31 29.48 28.62 27.81 27.11 26.60 26.29 25.98 25.71 25.41 25.29 25.17 25.08 25.18 25.49 25.89 26.35 26.59 26.74 26.87 26.89 26.67
38.63 38.88 38.90 38.93 39.15 39.36 39.56 39.65 40.40 40.98 41.01 39.96 39.83 39.68 39.32 38.91 38.78 38.78 38.71 38.18 37.95 37.14 36.03 35.00 34.83 34.91 35.31 35.90 36.66 36.23 35.64 35.55 35.34 35.21 35.09 35.14 35.26 35.18 34.84 34.42 33.72 32.88 32.30 32.10 31.76 31.23 30.66 29.97 29.05 28.31 27.57 26.79 26.44 26.06 25.67 25.10 24.74 24.41 24.32 24.20 24.20 24.56 25.09 25.61 25.95 26.15 26.34 26.42 26.13
37.98 38.40 38.65 38.88 39.05 39.25 39.32 39.48 39.88 40.24 40.18 39.88 39.78 39.57 39.03 38.63 38.63 38.74 38.59 38.09 37.92 36.99 35.90 34.98 34.74 34.81 35.06 35.34 35.91 35.33 34.65 34.81 35.01 35.11 35.10 34.93 35.01 34.88 34.47 33.80 32.86 32.06 31.54 31.58 31.41 30.91 30.29 29.60 28.77 27.98 27.35 26.59 26.29 25.91 25.39 24.76 24.19 23.74 23.52 23.44 23.44 23.46 23.83 24.52 25.07 25.53 25.88 26.14 26.02
37.55 37.84 38.20 38.57 38.82 39.05 39.22 39.56 40.00 40.15 39.99 39.71 39.83 39.50 39.06 38.65 39.14 39.13 38.84 38.36 37.94 37.13 36.19 35.36 34.98 34.80 34.80 34.77 34.63 34.05 33.62 33.95 34.49 34.83 34.95 34.60 34.60 34.44 33.91 32.93 32.03 31.32 30.96 31.17 31.04 30.56 29.98 29.35 28.69 27.98 27.19 26.20 26.01 25.71 25.25 24.56 23.79 23.21 22.93 23.04 23.16 23.00 22.96 23.24 23.99 24.63 25.20 25.64 25.59
MSLP
1008.80 1008.68 1008.64 1008.60 1008.56 1008.48 1008.36 1008.40 1008.48 1008.48 1008.48 1008.48 1008.56 1008.68 1008.76 1008.84 1008.96 1009.08 1009.16 1009.32 1009.48 1009.68 1009.88 1010.12 1010.36 1010.64 1010.92 1011.12 1011.24 1011.40 1011.60 1011.84 1012.04 1012.20 1012.28 1012.36 1012.48 1012.52 1012.64 1012.92 1013.56 1014.28 1014.88 1015.16 1015.20 1015.00 1014.60 1014.20 1013.96 1014.04 1014.24 1014.48 1014.76 1015.08 1015.44 1015.68 1015.92 1016.20 1016.36 1016.60 1016.96 1017.20 1017.32 1017.28 1017.36 1017.52 1017.76 1018.00 1018.20
1008.88 1008.68 1008.60 1008.60 1008.60 1008.52 1008.40 1008.36 1008.36 1008.32 1008.32 1008.32 1008.48 1008.64 1008.84 1008.92 1009.04 1009.16 1009.28 1009.44 1009.60 1009.80 1010.00 1010.20 1010.40 1010.60 1010.84 1011.12 1011.32 1011.60 1011.76 1011.96 1012.20 1012.36 1012.48 1012.60 1012.64 1012.72 1012.88 1013.16 1013.64 1014.32 1014.96 1015.48 1015.64 1015.56 1015.20 1014.64 1014.20 1014.16 1014.32 1014.56 1014.80 1015.16 1015.52 1015.84 1016.08 1016.32 1016.60 1016.92 1017.20 1017.32 1017.36 1017.40 1017.52 1017.76 1018.00 1018.20 1018.40
1008.88 1008.68 1008.52 1008.48 1008.48 1008.48 1008.40 1008.28 1008.20 1008.16 1008.12 1008.16 1008.20 1008.44 1008.68 1008.76 1008.88 1009.04 1009.20 1009.44 1009.60 1009.76 1009.88 1010.04 1010.28 1010.36 1010.48 1010.76 1011.04 1011.40 1011.72 1012.00 1012.24 1012.48 1012.68 1012.76 1012.84 1012.88 1013.04 1013.36 1013.76 1014.32 1014.92 1015.52 1015.88 1015.92 1015.60 1014.96 1014.48 1014.28 1014.36 1014.60 1014.92 1015.36 1015.76 1016.08 1016.36 1016.64 1016.96 1017.20 1017.32 1017.32 1017.36 1017.52 1017.76 1018.00 1018.20 1018.44 1018.56
1008.96 1008.72 1008.52 1008.40 1008.32 1008.32 1008.32 1008.28 1008.16 1008.08 1008.08 1008.08 1008.12 1008.24 1008.44 1008.64 1008.76 1008.88 1009.12 1009.40 1009.56 1009.68 1009.80 1009.92 1010.08 1010.16 1010.24 1010.32 1010.60 1010.96 1011.36 1011.76 1012.12 1012.48 1012.76 1012.96 1013.08 1013.16 1013.28 1013.48 1013.76 1014.20 1014.80 1015.44 1015.88 1016.04 1015.84 1015.36 1014.88 1014.64 1014.76 1015.00 1015.40 1015.84 1016.20 1016.48 1016.60 1016.88 1017.12 1017.28 1017.32 1017.32 1017.48 1017.72 1018.00 1018.20 1018.36 1018.52 1018.64
1009.04 1008.76 1008.48 1008.36 1008.24 1008.20 1008.24 1008.24 1008.20 1008.20 1008.20 1008.24 1008.28 1008.32 1008.40 1008.60 1008.72 1008.88 1009.04 1009.36 1009.56 1009.72 1009.84 1009.88 1010.04 1010.16 1010.20 1010.28 1010.48 1010.76 1011.12 1011.56 1011.92 1012.32 1012.68 1013.04 1013.24 1013.44 1013.52 1013.60 1013.76 1014.12 1014.64 1015.28 1015.80 1016.04 1016.04 1015.76 1015.48 1015.36 1015.44 1015.60 1015.96 1016.32 1016.52 1016.64 1016.80 1017.00 1017.20 1017.32 1017.36 1017.44 1017.60 1017.88 1018.12 1018.32 1018.48 1018.60 1018.76
1009.16 1008.88 1008.56 1008.36 1008.20 1008.20 1008.20 1008.20 1008.16 1008.16 1008.20 1008.32 1008.36 1008.40 1008.48 1008.60 1008.72 1008.88 1009.04 1009.32 1009.52 1009.76 1009.88 1010.04 1010.12 1010.20 1010.32 1010.44 1010.56 1010.80 1011.12 1011.52 1011.84 1012.20 1012.56 1012.92 1013.24 1013.52 1013.68 1013.84 1013.96 1014.24 1014.72 1015.20 1015.60 1016.00 1016.20 1016.20 1016.16 1016.12 1016.12 1016.20 1016.44 1016.68 1016.88 1017.04 1017.16 1017.32 1017.48 1017.56 1017.60 1017.68 1017.80 1018.04 1018.20 1018.40 1018.52 1018.64 1018.76
1009.16 1008.88 1008.60 1008.40 1008.28 1008.20 1008.12 1008.16 1008.12 1008.12 1008.16 1008.20 1008.28 1008.40 1008.48 1008.56 1008.68 1008.84 1009.00 1009.20 1009.52 1009.80 1010.00 1010.16 1010.20 1010.24 1010.32 1010.44 1010.60 1010.88 1011.16 1011.56 1011.88 1012.20 1012.48 1012.84 1013.24 1013.52 1013.76 1014.00 1014.20 1014.52 1014.84 1015.12 1015.44 1015.76 1016.04 1016.20 1016.40 1016.52 1016.64 1016.76 1016.92 1017.12 1017.32 1017.56 1017.76 1017.92 1017.96 1017.96 1017.92 1017.96 1018.04 1018.16 1018.32 1018.48 1018.60 1018.68 1018.76
1009.12 1008.88 1008.60 1008.32 1008.28 1008.20 1008.12 1008.08 1008.08 1008.04 1008.04 1008.08 1008.12 1008.20 1008.32 1008.48 1008.64 1008.76 1008.92 1009.16 1009.48 1009.76 1009.92 1010.08 1010.16 1010.20 1010.24 1010.32 1010.56 1010.80 1011.12 1011.48 1011.80 1012.12 1012.44 1012.76 1013.08 1013.44 1013.76 1014.04 1014.32 1014.60 1014.84 1015.04 1015.32 1015.56 1015.84 1016.04 1016.32 1016.48 1016.68 1016.80 1017.00 1017.20 1017.48 1017.76 1018.04 1018.20 1018.24 1018.24 1018.24 1018.20 1018.20 1018.24 1018.36 1018.48 1018.60 1018.68 1018.76
1009.00 1008.80 1008.60 1008.32 1008.20 1008.16 1008.08 1008.04 1008.00 1007.96 1007.92 1007.88 1007.92 1008.04 1008.20 1008.32 1008.52 1008.72 1008.88 1009.04 1009.28 1009.52 1009.76 1009.92 1010.00 1010.04 1010.12 1010.20 1010.40 1010.60 1010.84 1011.16 1011.48 1011.88 1012.24 1012.60 1012.92 1013.28 1013.60 1013.88 1014.16 1014.40 1014.64 1014.88 1015.12 1015.36 1015.60 1015.88 1016.16 1016.32 1016.52 1016.68 1016.88 1017.16 1017.44 1017.68 1017.96 1018.16 1018.32 1018.36 1018.36 1018.36 1018.36 1018.36 1018.48 1018.56 1018.60 1018.72 1018.80
1008.80 1008.64 1008.52 1008.32 1008.20 1008.08 1008.04 1007.96 1007.96 1007.88 1007.84 1007.80 1007.80 1007.88 1008.00 1008.12 1008.32 1008.52 1008.76 1008.88 1009.12 1009.32 1009.56 1009.72 1009.80 1009.88 1009.92 1010.04 1010.20 1010.28 1010.40 1010.64 1011.00 1011.44 1011.88 1012.32 1012.64 1013.00 1013.32 1013.56 1013.80 1014.08 1014.36 1014.64 1014.92 1015.16 1015.40 1015.68 1016.00 1016.20 1016.40 1016.56 1016.76 1017.00 1017.28 1017.56 1017.76 1018.04 1018.20 1018.32 1018.40 1018.40 1018.40 1018.48 1018.52 1018.60 1018.64 1018.76 1018.84
1008.60 1008.44 1008.32 1008.20 1008.08 1007.96 1007.88 1007.88 1007.88 1007.84 1007.76 1007.76 1007.76 1007.76 1007.88 1007.96 1008.12 1008.32 1008.60 1008.76 1009.00 1009.16 1009.32 1009.48 1009.56 1009.60 1009.68 1009.80 1009.92 1010.04 1010.08 1010.20 1010.52 1011.00 1011.48 1011.96 1012.36 1012.68 1012.96 1013.24 1013.52 1013.84 1014.12 1014.40 1014.68 1014.96 1015.20 1015.48 1015.80 1016.04 1016.28 1016.48 1016.68 1016.88 1017.12 1017.40 1017.60 1017.88 1018.04 1018.20 1018.28 1018.32 1018.32 1018.44 1018.48 1018.56 1018.64 1018.76 1018.88
1008.48 1008.28 1008.08 1007.96 1007.88 1007.80 1007.72 1007.72 1007.72 1007.72 1007.68 1007.64 1007.60 1007.68 1007.76 1007.84 1007.96 1008.20 1008.44 1008.60 1008.76 1008.92 1009.08 1009.20 1009.32 1009.32 1009.40 1009.56 1009.76 1009.88 1009.92 1010.00 1010.20 1010.60 1011.08 1011.60 1012.04 1012.40 1012.76 1013.08 1013.40 1013.72 1014.00 1014.28 1014.56 1014.80 1015.04 1015.32 1015.60 1015.88 1016.12 1016.32 1016.60 1016.76 1017.00 1017.20 1017.40 1017.64 1017.88 1018.04 1018.08 1018.16 1018.20 1018.32 1018.44 1018.52 1018.64 1018.80 1018.96
1008.32 1008.20 1008.00 1007.80 1007.64 1007.56 1007.48 1007.48 1007.48 1007.52 1007.52 1007.48 1007.48 1007.56 1007.64 1007.76 1007.88 1008.04 1008.20 1008.36 1008.48 1008.60 1008.84 1009.04 1009.08 1009.16 1009.28 1009.40 1009.56 1009.76 1009.88 1010.00 1010.20 1010.44 1010.80 1011.28 1011.72 1012.20 1012.60 1013.04 1013.40 1013.68 1013.96 1014.20 1014.48 1014.68 1014.92 1015.16 1015.44 1015.68 1015.92 1016.20 1016.40 1016.60 1016.80 1017.00 1017.16 1017.40 1017.60 1017.76 1017.88 1017.96 1018.08 1018.24 1018.40 1018.56 1018.72 1018.88 1019.08
1008.08 1008.00 1007.84 1007.64 1007.52 1007.36 1007.24 1007.20 1007.24 1007.32 1007.36 1007.36 1007.32 1007.36 1007.52 1007.68 1007.80 1007.92 1008.04 1008.20 1008.28 1008.36 1008.52 1008.76 1008.88 1009.04 1009.12 1009.24 1009.44 1009.64 1009.88 1010.16 1010.32 1010.56 1010.80 1011.16 1011.56 1012.00 1012.48 1012.88 1013.28 1013.60 1013.88 1014.16 1014.36 1014.60 1014.80 1015.04 1015.28 1015.52 1015.76 1016.00 1016.20 1016.48 1016.64 1016.80 1016.96 1017.16 1017.32 1017.48 1017.64 1017.80 1018.00 1018.20 1018.40 1018.60 1018.76 1018.96 1019.20
1007.80 1007.72 1007.60 1007.56 1007.44 1007.20 1007.04 1007.00 1007.04 1007.04 1007.12 1007.20 1007.20 1007.24 1007.36 1007.56 1007.76 1007.88 1008.00 1008.08 1008.16 1008.20 1008.28 1008.48 1008.68 1008.88 1009.04 1009.16 1009.36 1009.60 1009.96 1010.28 1010.48 1010.68 1010.88 1011.16 1011.48 1011.88 1012.28 1012.72 1013.08 1013.44 1013.76 1014.04 1014.28 1014.48 1014.68 1014.88 1015.12 1015.32 1015.60 1015.84 1016.04 1016.32 1016.52 1016.68 1016.84 1017.00 1017.16 1017.32 1017.48 1017.72 1017.96 1018.20 1018.40 1018.60 1018.80 1019.04 1019.24
1007.60 1007.48 1007.44 1007.40 1007.24 1007.08 1006.92 1006.88 1006.84 1006.80 1006.84 1006.92 1007.04 1007.12 1007.20 1007.36 1007.60 1007.80 1007.92 1008.04 1008.04 1008.04 1008.12 1008.24 1008.44 1008.72 1009.00 1009.20 1009.40 1009.64 1009.96 1010.28 1010.52 1010.72 1010.92 1011.16 1011.48 1011.76 1012.12 1012.48 1012.88 1013.20 1013.56 1013.88 1014.16 1014.40 1014.60 1014.76 1015.04 1015.24 1015.48 1015.76 1015.96 1016.20 1016.40 1016.60 1016.76 1016.96 1017.12 1017.28 1017.48 1017.68 1017.92 1018.20 1018.36 1018.60 1018.80 1019.04 1019.24
1007.44 1007.32 1007.20 1007.12 1007.04 1006.88 1006.76 1006.64 1006.60 1006.60 1006.60 1006.68 1006.80 1006.88 1007.04 1007.20 1007.44 1007.60 1007.76 1007.84 1007.84 1007.84 1007.88 1008.00 1008.24 1008.56 1008.92 1009.24 1009.48 1009.68 1009.92 1010.20 1010.48 1010.64 1010.88 1011.08 1011.36 1011.68 1012.00 1012.32 1012.64 1013.00 1013.32 1013.68 1013.96 1014.24 1014.52 1014.76 1015.04 1015.28 1015.48 1015.76 1015.96 1016.16 1016.32 1016.56 1016.76 1016.92 1017.12 1017.32 1017.52 1017.76 1017.96 1018.20 1018.40 1018.60 1018.84 1019.04 1019.24
1007.32 1007.16 1007.00 1006.88 1006.76 1006.64 1006.52 1006.44 1006.36 1006.36 1006.40 1006.48 1006.52 1006.60 1006.76 1007.00 1007.16 1007.32 1007.52 1007.56 1007.56 1007.56 1007.60 1007.76 1008.04 1008.40 1008.76 1009.08 1009.40 1009.60 1009.80 1010.04 1010.28 1010.48 1010.72 1010.96 1011.28 1011.56 1011.88 1012.20 1012.52 1012.84 1013.16 1013.48 1013.76 1014.04 1014.36 1014.72 1015.04 1015.32 1015.56 1015.80 1016.00 1016.16 1016.32 1016.52 1016.76 1016.96 1017.16 1017.32 1017.60 1017.80 1018.04 1018.24 1018.44 1018.64 1018.84 1019.00 1019.24
1007.16 1007.04 1006.84 1006.60 1006.48 1006.36 1006.32 1006.24 1006.16 1006.16 1006.20 1006.24 1006.28 1006.32 1006.48 1006.72 1006.88 1007.08 1007.20 1007.32 1007.32 1007.36 1007.44 1007.60 1007.88 1008.20 1008.52 1008.88 1009.16 1009.40 1009.60 1009.84 1010.04 1010.28 1010.52 1010.80 1011.16 1011.48 1011.80 1012.16 1012.48 1012.76 1013.04 1013.36 1013.64 1013.96 1014.28 1014.60 1014.96 1015.28 1015.60 1015.80 1016.04 1016.20 1016.40 1016.60 1016.76 1017.00 1017.20 1017.44 1017.68 1017.88 1018.12 1018.32 1018.52 1018.68 1018.88 1019.04 1019.24
1006.92 1006.84 1006.72 1006.48 1006.24 1006.12 1006.04 1006.04 1005.96 1005.92 1005.96 1006.04 1006.08 1006.12 1006.20 1006.40 1006.64 1006.84 1006.96 1007.04 1007.12 1007.16 1007.28 1007.40 1007.60 1007.92 1008.32 1008.60 1008.88 1009.16 1009.48 1009.68 1009.88 1010.12 1010.40 1010.72 1011.08 1011.44 1011.76 1012.12 1012.44 1012.72 1013.00 1013.32 1013.60 1013.96 1014.28 1014.60 1014.92 1015.20 1015.48 1015.76 1016.00 1016.20 1016.44 1016.64 1016.84 1017.08 1017.32 1017.56 1017.76 1018.00 1018.20 1018.40 1018.60 1018.76 1018.88 1019.08 1019.28
1006.72 1006.60 1006.48 1006.32 1006.04 1005.88 1005.76 1005.76 1005.76 1005.76 1005.80 1005.84 1005.92 1005.96 1006.00 1006.12 1006.32 1006.52 1006.68 1006.80 1006.88 1007.04 1007.16 1007.28 1007.40 1007.64 1008.00 1008.32 1008.60 1008.88 1009.20 1009.48 1009.76 1010.00 1010.28 1010.64 1011.00 1011.32 1011.72 1012.04 1012.36 1012.68 1012.96 1013.28 1013.60 1013.92 1014.24 1014.56 1014.88 1015.16 1015.44 1015.72 1015.92 1016.16 1016.40 1016.68 1016.88 1017.16 1017.40 1017.64 1017.88 1018.08 1018.32 1018.48 1018.64 1018.80 1019.00 1019.16 1019.32
1006.48 1006.40 1006.28 1006.04 1005.76 1005.56 1005.44 1005.44 1005.48 1005.56 1005.64 1005.76 1005.80 1005.80 1005.80 1005.84 1006.00 1006.16 1006.36 1006.60 1006.76 1006.88 1007.04 1007.16 1007.28 1007.44 1007.64 1007.96 1008.28 1008.60 1008.92 1009.24 1009.60 1009.88 1010.20 1010.56 1010.92 1011.32 1011.64 1012.00 1012.32 1012.60 1012.92 1013.28 1013.60 1013.88 1014.20 1014.56 1014.84 1015.12 1015.40 1015.68 1015.88 1016.16 1016.40 1016.68 1016.92 1017.20 1017.48 1017.76 1018.00 1018.20 1018.40 1018.56 1018.72 1018.88 1019.04 1019.24 1019.40
1006.28 1006.20 1006.04 1005.80 1005.52 1005.24 1005.08 1005.08 1005.16 1005.32 1005.44 1005.60 1005.64 1005.68 1005.64 1005.68 1005.76 1005.88 1006.12 1006.32 1006.60 1006.76 1006.84 1007.04 1007.16 1007.32 1007.44 1007.64 1007.96 1008.32 1008.64 1009.04 1009.44 1009.80 1010.16 1010.52 1010.88 1011.32 1011.64 1011.96 1012.28 1012.60 1012.88 1013.24 1013.56 1013.88 1014.20 1014.48 1014.84 1015.12 1015.36 1015.64 1015.88 1016.16 1016.40 1016.64 1016.92 1017.20 1017.52 1017.76 1018.04 1018.24 1018.48 1018.60 1018.80 1019.00 1019.16 1019.32 1019.52
1006.08 1005.92 1005.76 1005.56 1005.24 1004.92 1004.72 1004.68 1004.84 1005.00 1005.16 1005.36 1005.48 1005.56 1005.60 1005.60 1005.68 1005.76 1005.88 1006.12 1006.36 1006.56 1006.68 1006.84 1007.08 1007.20 1007.32 1007.48 1007.76 1008.04 1008.40 1008.76 1009.24 1009.68 1010.12 1010.48 1010.88 1011.28 1011.60 1011.92 1012.20 1012.52 1012.88 1013.20 1013.48 1013.72 1014.00 1014.32 1014.72 1015.04 1015.32 1015.60 1015.88 1016.20 1016.48 1016.72 1016.96 1017.24 1017.52 1017.80 1018.04 1018.28 1018.48 1018.68 1018.88 1019.04 1019.20 1019.40 1019.60
1005.88 1005.72 1005.52 1005.32 1005.04 1004.72 1004.48 1004.32 1004.44 1004.60 1004.80 1005.04 1005.20 1005.36 1005.48 1005.52 1005.60 1005.68 1005.76 1005.92 1006.16 1006.36 1006.56 1006.68 1006.96 1007.16 1007.32 1007.48 1007.64 1007.88 1008.20 1008.56 1009.00 1009.48 1009.92 1010.40 1010.80 1011.16 1011.56 1011.88 1012.20 1012.52 1012.88 1013.20 1013.44 1013.60 1013.84 1014.12 1014.44 1014.80 1015.20 1015.56 1015.88 1016.24 1016.52 1016.80 1017.04 1017.32 1017.60 1017.76 1018.04 1018.24 1018.48 1018.72 1018.88 1019.04 1019.20 1019.40 1019.60
1005.76 1005.52 1005.28 1005.04 1004.76 1004.48 1004.20 1003.96 1003.96 1004.12 1004.36 1004.60 1004.88 1005.08 1005.20 1005.36 1005.48 1005.60 1005.72 1005.80 1006.00 1006.24 1006.48 1006.64 1006.84 1007.04 1007.28 1007.48 1007.60 1007.84 1008.12 1008.48 1008.80 1009.16 1009.64 1010.20 1010.64 1011.08 1011.48 1011.76 1012.20 1012.56 1012.88 1013.20 1013.44 1013.60 1013.76 1014.04 1014.28 1014.60 1015.00 1015.40 1015.80 1016.20 1016.56 1016.88 1017.16 1017.40 1017.64 1017.84 1018.00 1018.20 1018.40 1018.60 1018.84 1019.04 1019.24 1019.40 1019.60
1005.60 1005.32 1005.04 1004.76 1004.48 1004.16 1003.84 1003.60 1003.48 1003.60 1003.84 1004.20 1004.48 1004.72 1004.88 1005.12 1005.32 1005.48 1005.60 1005.76 1005.88 1006.16 1006.48 1006.68 1006.84 1007.04 1007.24 1007.44 1007.56 1007.76 1008.04 1008.36 1008.68 1009.04 1009.40 1009.88 1010.44 1010.88 1011.28 1011.68 1012.08 1012.52 1012.88 1013.20 1013.44 1013.60 1013.80 1014.04 1014.32 1014.56 1014.84 1015.24 1015.64 1016.04 1016.48 1016.88 1017.20 1017.48 1017.68 1017.84 1018.00 1018.16 1018.32 1018.52 1018.76 1019.00 1019.20 1019.44 1019.60
1005.48 1005.16 1004.88 1004.56 1004.20 1003.88 1003.56 1003.24 1003.04 1003.04 1003.28 1003.60 1004.00 1004.28 1004.52 1004.84 1005.08 1005.32 1005.48 1005.68 1005.88 1006.20 1006.48 1006.76 1006.92 1007.12 1007.28 1007.44 1007.48 1007.60 1007.84 1008.20 1008.56 1008.92 1009.32 1009.76 1010.20 1010.60 1011.08 1011.52 1011.96 1012.44 1012.88 1013.20 1013.44 1013.60 1013.80 1014.04 1014.32 1014.60 1014.88 1015.20 1015.60 1016.00 1016.36 1016.76 1017.08 1017.36 1017.60 1017.76 1017.96 1018.12 1018.32 1018.52 1018.76 1019.00 1019.20 1019.48 1019.64
1005.20 1004.96 1004.64 1004.32 1003.96 1003.60 1003.28 1002.96 1002.72 1002.60 1002.68 1003.04 1003.48 1003.88 1004.20 1004.56 1004.76 1005.04 1005.32 1005.60 1005.84 1006.20 1006.48 1006.76 1006.92 1007.16 1007.36 1007.48 1007.44 1007.48 1007.68 1008.04 1008.36 1008.80 1009.24 1009.68 1010.04 1010.48 1010.92 1011.40 1011.88 1012.36 1012.84 1013.16 1013.40 1013.60 1013.88 1014.16 1014.40 1014.68 1014.96 1015.24 1015.60 1015.96 1016.32 1016.64 1016.96 1017.20 1017.44 1017.72 1017.88 1018.08 1018.32 1018.52 1018.76 1019.00 1019.20 1019.48 1019.60
1004.96 1004.76 1004.48 1004.12 1003.76 1003.40 1003.04 1002.68 1002.40 1002.20 1002.32 1002.64 1003.12 1003.52 1003.88 1004.20 1004.52 1004.84 1005.12 1005.40 1005.68 1006.00 1006.32 1006.56 1006.80 1007.04 1007.24 1007.32 1007.40 1007.48 1007.68 1007.88 1008.28 1008.68 1009.12 1009.52 1009.96 1010.40 1010.84 1011.28 1011.80 1012.32 1012.80 1013.16 1013.40 1013.60 1013.88 1014.20 1014.48 1014.76 1015.04 1015.28 1015.52 1015.88 1016.24 1016.52 1016.84 1017.12 1017.36 1017.64 1017.88 1018.08 1018.32 1018.56 1018.76 1019.00 1019.20 1019.44 1019.60
1004.64 1004.48 1004.28 1004.00 1003.64 1003.28 1002.88 1002.52 1002.20 1002.00 1002.08 1002.44 1002.88 1003.24 1003.60 1003.92 1004.28 1004.56 1004.84 1005.12 1005.44 1005.76 1006.12 1006.36 1006.60 1006.80 1007.04 1007.28 1007.32 1007.44 1007.60 1007.80 1008.20 1008.60 1009.00 1009.32 1009.76 1010.24 1010.72 1011.20 1011.76 1012.28 1012.76 1013.08 1013.32 1013.60 1013.88 1014.20 1014.52 1014.80 1015.08 1015.36 1015.60 1015.84 1016.16 1016.48 1016.76 1017.08 1017.36 1017.64 1017.88 1018.12 1018.32 1018.60 1018.76 1019.00 1019.16 1019.32 1019.60
1004.32 1004.20 1004.04 1003.80 1003.48 1003.16 1002.84 1002.48 1002.08 1001.88 1001.96 1002.28 1002.68 1003.00 1003.28 1003.64 1004.00 1004.28 1004.56 1004.88 1005.28 1005.68 1006.04 1006.32 1006.48 1006.64 1006.96 1007.32 1007.40 1007.44 1007.52 1007.72 1008.12 1008.52 1008.88 1009.20 1009.60 1010.08 1010.60 1011.16 1011.68 1012.20 1012.64 1013.00 1013.28 1013.56 1013.88 1014.20 1014.52 1014.84 1015.08 1015.36 1015.60 1015.88 1016.20 1016.52 1016.84 1017.16 1017.44 1017.72 1017.92 1018.16 1018.36 1018.60 1018.76 1019.00 1019.16 1019.32 1019.52
1004.04 1003.88 1003.76 1003.52 1003.32 1003.04 1002.76 1002.40 1002.04 1001.84 1001.84 1002.12 1002.48 1002.76 1003.04 1003.40 1003.76 1004.12 1004.48 1004.84 1005.16 1005.52 1005.88 1006.12 1006.28 1006.48 1006.88 1007.28 1007.48 1007.52 1007.52 1007.72 1008.04 1008.48 1008.88 1009.20 1009.60 1010.04 1010.60 1011.16 1011.68 1012.16 1012.56 1012.88 1013.16 1013.48 1013.84 1014.20 1014.52 1014.84 1015.16 1015.44 1015.72 1016.04 1016.32 1016.60 1016.92 1017.28 1017.56 1017.84 1018.04 1018.24 1018.44 1018.60 1018.76 1019.00 1019.16 1019.32 1019.52
1003.80 1003.60 1003.48 1003.32 1003.16 1002.92 1002.64 1002.32 1002.00 1001.76 1001.76 1001.88 1002.24 1002.60 1002.88 1003.24 1003.60 1004.00 1004.32 1004.68 1005.04 1005.36 1005.64 1005.88 1006.04 1006.24 1006.60 1007.04 1007.32 1007.48 1007.56 1007.76 1008.16 1008.52 1008.92 1009.28 1009.64 1010.08 1010.60 1011.08 1011.64 1012.12 1012.52 1012.80 1013.16 1013.48 1013.80 1014.20 1014.52 1014.88 1015.20 1015.52 1015.84 1016.16 1016.48 1016.80 1017.08 1017.40 1017.68 1017.92 1018.20 1018.36 1018.52 1018.68 1018.88 1019.04 1019.16 1019.36 1019.60
1003.60 1003.36 1003.20 1003.08 1002.96 1002.80 1002.60 1002.36 1002.04 1001.76 1001.68 1001.76 1002.04 1002.36 1002.76 1003.04 1003.36 1003.68 1004.04 1004.44 1004.84 1005.24 1005.60 1005.88 1006.04 1006.28 1006.60 1006.96 1007.16 1007.32 1007.48 1007.76 1008.20 1008.60 1008.96 1009.32 1009.72 1010.16 1010.60 1011.12 1011.60 1012.12 1012.48 1012.76 1013.08 1013.48 1013.80 1014.20 1014.52 1014.88 1015.24 1015.60 1016.00 1016.32 1016.64 1016.96 1017.24 1017.52 1017.76 1018.04 1018.28 1018.48 1018.68 1018.88 1019.04 1019.16 1019.32 1019.48 1019.68
1003.36 1003.20 1003.08 1002.92 1002.80 1002.68 1002.56 1002.32 1002.04 1001.76 1001.64 1001.76 1001.96 1002.24 1002.56 1002.88 1003.16 1003.48 1003.80 1004.24 1004.76 1005.16 1005.60 1006.00 1006.28 1006.52 1006.80 1007.12 1007.28 1007.32 1007.36 1007.60 1008.08 1008.56 1009.00 1009.32 1009.76 1010.20 1010.64 1011.12 1011.64 1012.20 1012.56 1012.80 1013.08 1013.44 1013.80 1014.16 1014.52 1014.88 1015.28 1015.68 1016.08 1016.48 1016.80 1017.08 1017.36 1017.64 1017.88 1018.12 1018.36 1018.60 1018.80 1019.00 1019.16 1019.32 1019.48 1019.60 1019.76
1003.28 1003.04 1002.92 1002.80 1002.68 1002.60 1002.48 1002.32 1002.04 1001.80 1001.68 1001.76 1001.88 1002.12 1002.40 1002.72 1003.08 1003.40 1003.76 1004.20 1004.68 1005.08 1005.52 1006.00 1006.32 1006.64 1006.88 1007.16 1007.36 1007.36 1007.40 1007.60 1007.96 1008.48 1008.96 1009.36 1009.76 1010.20 1010.68 1011.16 1011.72 1012.24 1012.60 1012.84 1013.16 1013.48 1013.76 1014.12 1014.52 1014.88 1015.28 1015.68 1016.16 1016.56 1016.88 1017.16 1017.48 1017.76 1018.00 1018.24 1018.48 1018.72 1018.92 1019.16 1019.32 1019.48 1019.60 1019.76 1019.92
1003.16 1002.92 1002.76 1002.60 1002.52 1002.44 1002.36 1002.28 1002.08 1001.88 1001.76 1001.76 1001.88 1002.04 1002.32 1002.64 1003.04 1003.44 1003.76 1004.20 1004.56 1004.96 1005.44 1005.88 1006.28 1006.60 1006.92 1007.20 1007.44 1007.48 1007.56 1007.72 1007.96 1008.36 1008.88 1009.40 1009.80 1010.20 1010.68 1011.20 1011.76 1012.32 1012.72 1012.92 1013.16 1013.48 1013.76 1014.16 1014.52 1014.88 1015.20 1015.60 1016.08 1016.48 1016.88 1017.16 1017.48 1017.76 1018.04 1018.32 1018.60 1018.84 1019.04 1019.24 1019.44 1019.60 1019.76 1019.96 1020.16
1003.08 1002.80 1002.60 1002.44 1002.32 1002.32 1002.28 1002.20 1002.12 1002.00 1001.88 1001.84 1001.88 1002.04 1002.32 1002.60 1003.00 1003.36 1003.76 1004.12 1004.40 1004.76 1005.28 1005.76 1006.20 1006.56 1006.92 1007.28 1007.56 1007.76 1007.92 1008.00 1008.12 1008.40 1008.84 1009.40 1009.84 1010.28 1010.72 1011.20 1011.80 1012.32 1012.76 1013.04 1013.24 1013.48 1013.84 1014.20 1014.56 1014.88 1015.20 1015.56 1016.00 1016.40 1016.76 1017.12 1017.48 1017.76 1018.04 1018.36 1018.64 1018.92 1019.16 1019.32 1019.52 1019.72 1019.92 1020.16 1020.36
1003.00 1002.76 1002.52 1002.32 1002.20 1002.12 1002.12 1002.08 1002.04 1002.00 1002.00 1001.96 1002.00 1002.08 1002.32 1002.64 1002.96 1003.32 1003.76 1004.20 1004.48 1004.84 1005.20 1005.64 1006.16 1006.60 1007.00 1007.36 1007.68 1007.96 1008.16 1008.28 1008.32 1008.56 1008.92 1009.48 1010.00 1010.48 1010.88 1011.28 1011.84 1012.40 1012.88 1013.16 1013.32 1013.56 1013.88 1014.24 1014.60 1014.88 1015.20 1015.60 1015.96 1016.32 1016.68 1017.04 1017.40 1017.76 1018.04 1018.36 1018.64 1018.92 1019.20 1019.48 1019.64 1019.84 1020.04 1020.32 1020.56
1002.88 1002.60 1002.40 1002.20 1002.04 1001.96 1001.92 1001.92 1001.96 1001.96 1002.00 1002.04 1002.00 1002.08 1002.32 1002.64 1003.04 1003.44 1003.88 1004.32 1004.64 1005.00 1005.36 1005.76 1006.24 1006.68 1007.12 1007.48 1007.76 1008.04 1008.24 1008.40 1008.56 1008.76 1009.16 1009.64 1010.20 1010.72 1011.08 1011.48 1011.92 1012.48 1012.92 1013.24 1013.44 1013.64 1013.92 1014.28 1014.60 1014.88 1015.16 1015.56 1015.92 1016.32 1016.60 1016.92 1017.28 1017.64 1018.00 1018.32 1018.60 1018.88 1019.20 1019.52 1019.76 1019.96 1020.12 1020.32 1020.60
Wind_Speed
1 2 2 2 2 3 3 3 3 3 3 4 5 5 5 5 5 5 5 5 5 5 6 6 6 7 8 10 11 12 12 13 13 13 13 14 15 16 17 16 15 12 10 7 6 4 3 6 7 7 7 7 8 8 7 7 7 8 8 8 7 7 8 9 10 10 10 10 8
3 3 3 3 3 3 3 4 4 4 4 5 6 6 6 6 6 6 6 6 6 6 7 7 8 10 11 13 12 12 12 13 14 14 14 15 16 17 17 16 15 13 11 8 6 4 3 5 6 7 7 7 8 8 7 7 8 8 9 9 7 7 7 8 9 10 10 9 8
6 5 4 5 5 4 4 4 4 5 6 6 7 7 7 6 6 7 7 7 8 8 8 8 10 12 15 16 14 14 13 14 14 13 13 13 15 15 16 16 16 15 12 9 6 5 4 5 6 7 7 8 9 8 7 7 8 8 9 9 7 6 6 7 8 8 8 7 8
7 6 5 6 6 6 5 4 5 6 6 6 7 7 8 7 7 7 8 9 9 9 9 9 10 12 14 16 16 16 16 15 15 15 13 13 13 14 15 16 17 16 14 11 8 7 7 7 6 7 8 10 10 8 6 6 7 7 7 6 6 6 7 6 6 6 6 6 7
8 7 6 6 7 7 6 5 6 7 6 6 6 6 7 7 7 7 8 8 8 8 9 11 11 11 13 15 18 18 18 17 16 15 14 14 14 14 14 16 17 17 16 14 11 9 8 8 7 7 7 8 7 6 6 6 7 6 5 4 5 6 6 6 6 6 6 6 6
9 8 7 6 7 7 7 7 8 8 8 7 7 7 7 7 7 7 8 8 9 10 12 12 11 12 13 16 17 18 17 16 15 15 16 16 15 15 15 16 16 16 15 15 14 12 10 8 6 6 6 7 7 7 7 7 6 5 5 4 4 5 6 6 6 5 6 7 7
11 9 8 7 7 7 8 8 9 9 9 8 10 10 10 9 9 10 11 10 11 11 11 11 12 13 14 16 16 16 16 15 15 16 16 16 15 15 15 15 16 15 15 15 14 13 11 9 7 6 6 6 6 6 7 6 5 4 4 4 3 4 5 7 6 6 7 9 10
12 11 9 8 8 8 9 10 10 9 9 9 11 12 13 12 13 13 13 13 12 12 11 11 14 15 16 16 16 17 17 17 16 16 16 16 16 16 16 16 16 15 15 14 14 13 11 9 8 7 7 7 7 7 8 8 7 6 5 4 4 4 5 5 6 6 8 10 10
12 12 10 9 9 10 10 11 11 11 10 10 12 13 14 14 15 15 14 13 13 13 13 13 16 18 18 18 18 18 18 18 17 16 16 16 17 17 16 15 16 15 14 14 14 13 12 9 8 8 8 7 8 9 10 11 10 9 7 6 5 5 5 5 6 7 9 10 10
14 13 12 10 10 11 11 12 11 12 12 12 14 14 14 15 16 15 14 12 14 14 15 15 18 19 19 19 18 18 18 17 17 17 17 16 16 16 16 15 16 15 14 13 13 13 12 9 9 9 9 9 10 11 12 12 12 11 9 6 7 7 7 7 8 9 9 10 10
17 15 14 11 11 12 12 12 12 12 12 12 14 14 15 15 16 16 14 14 15 16 17 17 19 19 19 18 17 17 17 16 16 17 17 16 16 16 16 15 16 15 15 13 12 12 11 9 10 11 11 10 12 13 13 14 14 13 11 9 9 10 10 9 9 9 9 10 10
17 16 15 13 13 13 13 13 11 12 12 13 14 14 14 15 17 17 17 17 18 19 19 19 20 20 19 16 16 16 15 16 17 17 17 17 17 16 16 15 15 15 14 14 12 10 10 10 11 13 14 13 12 12 14 16 15 14 13 12 12 11 11 11 10 9 8 10 10
17 16 15 14 14 14 14 13 12 11 12 14 14 14 14 14 16 18 18 20 20 19 18 19 19 19 18 16 15 15 14 15 16 16 16 16 16 16 16 15 15 14 14 13 11 10 10 11 13 15 15 15 13 13 14 16 15 15 14 13 13 12 11 11 10 10 9 10 10
17 16 15 15 14 14 14 13 11 11 12 13 14 14 14 14 16 17 18 19 19 19 18 19 17 16 16 16 16 15 15 14 15 16 16 16 16 16 16 15 15 14 13 12 11 12 12 13 15 16 16 17 15 15 15 15 15 14 14 14 13 13 12 11 11 11 11 11 11
17 16 15 15 14 13 13 13 11 11 12 13 13 13 14 14 15 16 16 18 19 18 17 17 16 15 15 16 16 16 16 15 15 16 16 16 17 17 17 16 15 15 13 12 12 13 14 15 16 16 17 17 16 15 15 14 14 14 13 14 13 13 12 12 12 11 11 12 11
17 16 15 15 14 13 12 12 10 10 12 13 14 14 14 13 14 15 16 18 17 16 16 17 16 15 15 15 16 16 16 16 16 16 16 16 17 17 17 17 16 16 15 14 13 13 13 14 15 16 16 16 16 15 15 14 13 13 13 13 13 13 13 13 12 12 12 12 11
17 16 15 15 15 14 13 12 10 10 11 13 15 15 14 14 14 15 16 18 16 16 17 19 17 15 14 13 14 15 15 15 16 16 16 16 17 17 17 17 17 16 16 16 15 14 14 13 14 14 15 15 15 14 14 14 13 13 13 13 13 13 13 12 12 12 12 12 11
17 17 16 15 16 16 15 14 12 12 12 14 16 16 15 15 15 16 17 18 17 18 19 20 17 16 15 14 14 14 14 15 16 16 16 16 17 17 17 17 16 16 16 16 16 16 15 15 14 14 13 13 13 13 13 13 12 12 13 13 13 12 12 12 12 11 11 11 11
17 17 17 16 16 16 16 15 13 13 13 15 15 16 16 17 17 17 17 18 19 20 21 20 18 16 16 16 15 14 14 15 17 17 17 17 16 16 16 16 16 16 16 16 16 16 16 15 15 14 13 13 13 12 12 12 12 12 12 12 12 12 12 12 11 11 10 11 10
17 17 18 17 15 15 16 15 14 13 13 14 16 17 18 19 19 19 19 19 20 20 21 20 18 17 17 17 16 16 15 14 16 17 17 16 16 16 16 16 16 16 16 16 15 15 15 15 15 15 15 14 14 13 13 12 12 12 12 11 12 11 11 11 11 10 10 10 10
17 17 18 18 16 15 15 15 14 13 13 14 16 17 19 19 20 20 20 20 20 20 20 20 20 19 19 18 18 17 16 14 16 17 17 16 16 16 16 16 16 15 15 15 15 15 15 15 15 15 15 14 14 14 14 13 13 12 12 11 11 11 11 10 10 10 10 10 9
16 17 17 18 17 15 15 16 15 14 14 14 16 17 18 19 20 21 21 20 20 20 20 20 21 21 21 20 19 18 17 14 15 16 16 16 16 16 15 15 15 15 15 14 14 15 15 15 15 15 15 14 14 14 14 13 13 13 12 12 11 11 11 10 10 9 9 9 9
17 16 17 18 17 16 15 15 16 16 15 15 16 17 17 18 19 20 20 20 19 19 19 19 20 21 21 21 20 19 18 16 16 16 15 15 16 16 15 15 16 16 15 14 14 15 15 15 15 15 14 14 14 14 14 14 14 13 13 13 12 12 11 10 9 9 9 8 8
17 16 16 16 17 17 15 15 16 17 17 17 17 17 17 17 18 19 19 20 19 19 19 17 18 19 21 21 21 20 19 18 18 17 17 17 16 16 16 15 15 15 14 11 13 14 14 13 14 14 14 13 14 14 13 13 13 13 13 13 13 12 11 10 9 9 9 8 7
17 17 17 17 18 17 16 16 17 18 18 17 17 17 17 17 18 18 18 19 19 19 18 17 17 18 19 19 20 20 19 20 20 19 19 18 17 17 16 14 13 12 11 10 14 16 16 14 13 13 13 13 13 13 13 13 13 13 13 12 12 12 11 11 10 9 9 9 8
18 18 18 18 18 18 17 17 18 19 20 18 18 17 17 17 17 18 18 19 19 18 18 17 17 17 17 18 19 19 19 19 20 20 20 19 19 18 16 13 12 10 9 11 16 18 19 18 16 14 13 13 13 13 12 12 12 12 12 12 12 12 11 11 11 10 10 9 9
18 17 17 18 18 18 18 17 18 20 21 21 19 19 18 18 17 17 18 18 18 17 16 15 15 15 16 17 19 20 19 18 19 20 21 21 21 19 17 14 12 10 10 14 18 19 20 20 19 17 15 14 14 13 12 12 12 12 12 12 11 11 12 12 12 11 10 10 11
18 17 17 17 18 18 18 17 18 20 22 23 21 20 19 19 18 18 18 18 17 16 14 12 12 12 12 14 18 20 21 20 19 20 20 21 21 20 18 14 13 11 12 17 19 20 20 20 20 19 17 14 13 13 13 13 12 12 11 11 11 11 12 12 11 11 11 12 12
18 17 17 17 17 18 18 18 17 19 22 23 22 21 20 19 19 18 18 17 17 15 13 10 10 10 11 13 17 20 21 21 20 19 19 21 21 20 18 16 14 14 16 19 21 21 21 21 20 19 18 15 12 11 11 11 11 11 10 9 10 10 11 11 11 11 12 12 12
17 17 16 16 17 17 17 17 17 18 20 21 21 21 20 19 19 19 18 18 17 15 13 11 11 12 13 16 17 18 19 20 19 19 20 22 21 20 18 17 15 16 17 21 22 22 22 22 21 20 19 17 14 12 11 10 10 10 9 9 10 11 12 12 12 12 12 12 12
17 16 16 16 16 16 17 17 16 16 18 18 20 20 20 19 19 19 19 19 17 16 14 14 15 16 16 16 17 18 19 19 19 19 21 22 22 21 19 18 17 17 19 22 22 22 22 22 22 21 19 17 14 11 11 11 10 10 9 9 11 12 12 12 13 13 13 13 13
16 16 15 15 15 16 16 17 15 15 17 19 20 20 20 20 19 19 19 17 17 16 15 15 17 17 16 15 16 17 18 19 19 20 20 21 22 21 20 18 18 18 19 23 23 23 23 23 22 21 20 17 14 12 12 11 11 10 10 11 12 13 12 11 12 13 14 14 13
16 15 15 15 15 15 16 16 15 15 18 20 21 21 20 20 19 18 18 16 16 16 17 17 18 18 17 16 16 17 18 19 20 20 20 20 21 21 20 18 16 18 20 24 24 24 24 24 23 22 20 17 14 12 12 12 10 10 10 11 12 12 12 12 12 13 14 14 13
14 14 14 14 14 14 14 15 13 13 17 21 21 21 21 20 20 19 18 17 16 16 16 16 17 18 18 18 18 19 19 17 18 19 20 20 20 20 19 16 14 17 21 24 24 24 24 24 24 22 20 17 14 12 12 12 10 10 10 11 11 11 11 12 12 13 13 13 12
13 13 13 12 13 13 13 14 12 12 16 20 21 21 21 20 21 20 20 18 17 15 14 14 14 15 16 17 18 19 19 19 18 19 19 20 20 20 19 17 15 18 22 24 25 25 25 25 25 23 20 16 12 11 12 12 11 11 12 12 11 11 11 11 11 11 12 12 12
13 12 11 11 11 12 13 13 11 11 15 17 18 19 19 19 20 20 19 19 17 16 14 13 13 14 15 16 17 18 19 20 20 19 19 20 20 20 19 18 18 20 23 25 25 26 26 26 25 23 20 15 11 10 11 11 11 11 12 12 12 11 11 10 10 10 10 10 11
15 12 10 9 11 11 12 12 11 11 14 15 16 17 18 19 18 18 18 18 17 16 15 14 14 14 15 16 16 16 17 19 20 20 20 19 20 20 19 19 20 21 23 25 26 27 27 27 26 23 19 14 12 11 11 10 10 11 12 12 11 11 10 9 9 9 9 10 10
17 14 11 10 10 10 10 11 10 10 12 15 16 17 17 18 17 17 17 16 17 17 16 15 15 15 16 16 15 15 15 18 20 20 20 20 20 20 20 20 20 21 22 24 26 27 27 27 25 22 18 14 13 12 11 10 10 10 11 10 10 10 9 8 8 8 9 10 11
19 18 15 12 10 10 10 10 9 9 11 14 16 17 17 16 16 16 16 16 16 17 17 16 16 16 16 16 14 13 14 17 19 20 20 20 19 19 20 21 20 20 21 24 27 27 27 27 25 22 19 15 13 12 11 10 11 11 11 10 10 9 9 8 7 7 8 10 12
19 18 17 14 11 10 10 10 10 9 10 14 16 17 17 16 15 15 15 15 15 16 16 17 17 16 16 15 14 14 15 16 18 19 19 19 19 19 20 20 20 20 21 24 26 27 27 26 25 22 19 14 13 11 10 11 11 12 11 10 9 9 8 8 7 7 8 10 12
18 18 17 15 13 11 11 11 11 11 11 14 16 16 16 16 15 15 15 14 15 15 15 15 17 17 16 14 13 14 15 17 18 18 19 19 19 18 18 19 20 20 21 23 25 26 26 26 25 22 19 14 12 11 10 11 11 12 12 11 10 9 8 8 7 7 8 9 9
Wind_Direction
182 145 136 113 116 120 122 120 120 116 108 100 94 90 89 91 93 94 94 95 97 98 99 100 102 103 103 102 102 103 105 106 106 105 103 102 101 98 94 90 84 76 64 47 36 41 74 103 105 104 102 102 102 102 102 106 109 109 108 109 115 123 127 126 123 122 121 119 118
206 173 154 146 148 146 141 139 143 142 134 124 120 120 120 121 121 120 117 116 119 121 121 121 122 121 119 116 113 112 113 113 112 110 108 107 105 103 101 98 94 88 78 61 43 31 45 82 94 98 99 98 97 96 96 99 104 107 110 115 123 126 125 119 118 118 118 118 121
224 200 179 171 169 169 169 163 159 153 146 139 136 135 136 138 135 133 133 135 136 136 136 137 136 134 131 127 125 123 120 118 115 113 110 108 107 107 106 105 102 98 90 77 59 41 38 57 75 84 87 89 90 91 93 98 105 111 117 125 128 125 119 114 116 117 118 121 126
235 217 201 192 182 179 179 173 162 153 148 145 142 141 142 144 142 140 139 140 141 142 143 144 142 139 137 133 131 129 125 121 118 115 111 108 106 107 108 109 107 104 99 91 77 60 47 46 55 65 74 81 87 92 98 107 113 116 121 128 125 120 117 116 119 121 123 125 126
246 230 215 202 188 180 175 169 159 154 149 149 146 145 145 144 144 142 140 142 144 146 146 144 141 138 136 132 129 127 124 122 120 117 114 111 109 108 107 107 107 107 105 103 95 83 68 54 52 56 62 68 70 74 79 86 97 104 109 112 114 115 117 119 123 126 127 128 127
253 238 222 204 186 177 171 167 160 157 153 153 151 150 148 147 145 143 142 143 143 142 141 140 136 134 131 129 126 123 122 121 119 118 116 115 114 112 110 108 109 111 113 115 114 108 99 85 74 68 68 70 68 65 62 62 71 80 90 97 104 112 118 123 126 129 131 132 130
257 241 222 201 187 178 172 168 164 160 156 155 156 156 155 153 148 145 144 142 142 142 141 139 137 135 132 130 126 124 123 122 121 120 120 120 121 120 119 118 119 122 125 128 127 126 123 120 114 110 107 104 102 98 93 89 88 92 99 106 110 117 123 127 129 131 133 134 132
261 245 227 202 189 182 177 173 169 165 163 163 162 161 159 154 150 147 145 144 145 146 145 143 142 139 136 133 131 129 128 128 127 127 128 128 129 130 131 132 133 135 136 137 137 136 136 134 133 134 134 132 131 131 132 133 134 134 134 133 130 129 129 132 134 136 136 135 132
270 252 235 212 195 187 183 179 176 173 171 170 168 166 162 156 152 150 150 150 149 149 148 147 145 143 140 138 137 137 136 136 135 135 136 137 139 140 142 142 143 144 144 144 143 143 142 140 141 144 145 144 144 146 148 149 148 147 146 145 144 141 138 136 137 137 136 134 131
280 261 242 222 204 193 188 185 183 180 177 175 172 169 164 158 155 154 154 154 151 151 151 151 150 147 145 144 144 144 143 141 140 141 142 144 146 148 149 149 149 149 150 150 148 147 146 144 146 148 149 148 149 150 153 155 154 153 153 153 152 149 145 141 140 138 136 133 131
288 270 249 227 209 198 192 189 189 187 183 180 176 171 166 161 158 158 157 156 154 155 156 155 154 152 151 150 149 149 147 145 144 145 147 150 152 153 153 153 153 153 152 153 151 150 149 148 150 151 152 151 152 154 157 160 158 157 157 157 155 151 147 144 141 138 135 132 131
292 277 257 232 213 201 196 192 193 191 189 185 178 173 168 165 162 160 159 159 158 158 159 159 158 157 155 154 153 151 149 148 148 149 151 153 154 154 154 153 153 154 154 153 153 153 154 154 154 155 155 155 156 159 162 163 161 159 157 157 154 151 147 144 141 138 134 132 130
293 280 262 238 217 204 198 195 195 194 191 187 180 175 170 168 165 163 163 163 162 161 162 162 162 160 158 156 155 154 153 152 152 152 152 153 153 153 153 154 155 155 156 156 158 159 160 159 159 158 158 160 161 163 164 164 161 158 156 155 152 149 145 143 140 136 133 132 131
293 280 263 244 222 209 201 197 196 194 192 188 182 176 172 170 168 167 167 167 165 164 163 164 164 163 162 159 157 156 156 156 155 154 153 152 153 154 155 156 158 159 160 161 164 166 165 164 162 161 161 162 162 163 163 162 159 157 155 153 150 147 143 141 139 137 135 135 135
292 281 265 248 228 215 206 200 197 194 192 189 183 178 173 171 171 171 170 169 168 166 165 166 166 165 163 161 159 158 158 158 157 156 155 154 156 157 158 159 161 162 164 166 169 169 168 165 164 163 162 162 161 161 160 159 157 155 153 151 147 145 142 141 140 140 139 139 139
292 283 268 250 234 221 211 205 201 196 192 190 184 179 175 172 173 173 173 171 169 168 167 168 167 165 164 163 161 160 159 159 160 159 158 158 160 161 161 162 164 165 166 167 168 168 166 163 162 162 161 160 159 158 157 156 154 152 150 147 144 143 142 142 143 143 143 143 143
292 285 272 253 239 227 217 209 205 199 194 190 185 181 178 174 174 175 175 174 171 169 169 169 167 165 164 164 163 162 161 162 162 162 162 163 163 164 164 165 165 166 166 166 165 163 161 159 159 159 158 157 156 155 154 153 151 149 146 143 142 142 142 143 144 144 144 144 145
290 286 277 259 244 233 224 214 208 202 196 192 186 183 180 177 177 177 177 177 174 171 169 168 166 165 164 165 166 166 166 165 166 166 166 165 166 166 166 166 165 165 165 164 162 161 159 157 157 156 155 154 153 152 150 148 146 144 143 141 140 141 142 143 144 145 145 145 146
287 286 281 267 249 237 227 218 212 205 199 194 189 184 181 179 179 179 179 179 177 174 171 168 166 165 165 167 168 169 170 169 169 168 167 166 166 166 165 164 163 163 162 162 160 159 157 156 155 154 152 151 150 148 146 144 142 141 140 139 139 140 142 143 144 144 144 145 145
283 283 281 275 257 241 229 221 216 209 202 197 193 188 183 180 180 180 181 181 179 176 173 170 168 167 167 168 170 171 172 172 170 168 166 165 164 164 163 161 160 160 160 160 158 157 155 154 153 153 152 149 148 146 144 142 139 138 137 137 138 140 141 142 142 142 142 143 144
280 280 280 279 266 248 233 224 219 213 207 202 197 191 186 181 181 181 182 182 179 177 175 173 171 170 169 169 171 173 173 172 170 167 165 163 162 161 160 158 158 158 158 158 156 154 153 152 152 152 151 149 148 146 144 142 139 137 136 136 137 138 139 139 139 139 140 141 143
279 279 279 279 272 257 239 227 223 218 213 208 201 195 189 183 182 182 182 181 179 178 177 177 175 173 171 171 172 173 172 169 168 165 162 161 160 159 157 156 156 156 156 155 154 153 152 151 151 151 150 149 148 146 144 142 140 138 136 135 135 136 136 136 135 135 136 137 139
280 279 279 279 276 265 247 230 225 223 221 218 208 200 192 187 184 182 181 179 178 178 178 177 178 177 175 173 173 172 170 166 164 162 160 159 158 157 156 156 156 157 156 155 154 153 151 150 150 150 149 148 147 146 144 142 141 139 136 135 134 134 133 133 132 132 132 133 134
281 279 278 278 278 271 257 235 226 224 223 220 211 202 193 188 185 183 180 179 178 178 178 177 179 179 177 175 173 171 168 164 162 161 159 158 157 157 157 157 158 159 158 156 156 155 153 150 150 150 149 148 146 145 143 142 141 139 137 136 135 133 132 131 130 130 130 130 130
283 280 277 277 277 274 264 243 227 221 219 217 209 201 194 189 186 183 182 180 178 178 178 177 177 177 177 176 174 171 167 164 162 160 159 158 158 158 158 158 159 159 158 158 158 156 153 150 150 150 149 147 144 142 141 141 140 139 138 136 135 134 132 130 130 129 129 129 127
285 281 278 277 276 274 267 250 229 219 214 210 204 198 193 189 186 184 183 181 178 177 177 176 175 175 176 177 174 171 168 165 163 161 159 159 158 159 159 159 159 158 157 160 159 156 152 149 148 148 147 146 144 142 141 140 139 139 137 136 135 134 133 132 131 129 127 126 125
285 282 279 277 277 275 269 257 233 218 209 204 199 195 191 188 185 184 182 181 176 174 173 173 172 173 175 177 174 171 168 165 164 162 161 159 159 160 160 159 158 157 157 161 158 154 151 148 147 146 145 144 144 143 141 140 140 139 138 137 136 135 134 133 132 131 129 128 128
285 283 280 278 278 277 273 263 238 219 206 200 196 192 189 186 185 183 181 179 173 170 168 169 168 170 174 178 176 172 169 166 164 163 162 160 160 160 159 158 157 156 157 159 156 153 149 147 145 144 142 140 139 139 138 139 140 140 139 137 137 136 135 134 133 133 133 133 133
285 285 283 281 280 279 276 267 243 220 205 196 193 190 187 185 183 180 178 175 171 167 166 165 165 169 175 180 177 173 169 166 164 163 162 161 160 159 159 157 156 155 155 156 154 151 148 146 144 141 139 137 136 137 138 140 141 141 140 139 139 138 137 136 136 137 137 137 136
286 286 286 284 282 281 278 271 248 222 203 191 188 185 183 182 180 177 175 173 171 169 167 165 165 170 176 181 177 173 169 166 165 163 163 162 161 160 159 158 155 154 155 156 153 150 146 144 142 139 136 134 133 135 138 140 140 140 139 139 140 139 139 138 139 139 139 138 136
286 286 286 285 283 282 280 275 252 224 200 186 183 181 180 178 177 176 175 173 171 169 167 165 167 171 175 179 177 174 170 166 165 164 164 163 161 159 158 156 154 153 154 155 152 148 145 142 140 138 135 134 133 135 137 139 139 138 138 139 140 140 140 139 141 142 142 141 138
287 286 286 285 283 283 282 278 255 223 197 183 181 180 179 177 177 176 174 171 168 166 166 168 168 169 171 175 177 174 170 165 165 165 165 163 160 158 156 154 153 152 153 154 150 146 143 141 139 137 134 132 131 132 134 135 134 134 135 137 139 141 142 142 142 143 143 142 141
286 285 284 284 283 283 283 280 257 223 196 182 181 180 179 176 175 174 172 168 166 166 168 170 169 167 167 171 175 174 170 165 164 164 164 162 158 155 153 151 150 151 152 152 147 144 141 140 138 135 132 130 128 129 131 131 130 131 133 136 138 140 141 141 142 143 143 143 141
285 284 283 283 283 284 284 282 259 222 195 183 182 181 180 176 174 172 171 168 167 167 169 171 169 167 166 169 173 173 170 164 163 162 161 159 156 153 151 151 150 151 151 149 145 142 140 138 136 133 130 127 126 127 128 127 127 128 131 133 135 137 138 139 140 141 141 141 140
286 284 282 281 283 285 286 284 263 223 194 184 182 181 179 176 173 172 170 167 165 165 166 169 168 165 165 168 173 172 168 161 160 160 159 157 154 152 151 150 148 149 149 147 143 140 138 136 134 131 128 125 124 125 126 126 126 128 130 131 132 133 134 136 137 137 138 138 137
293 286 280 276 279 282 284 283 263 224 196 184 181 179 177 175 173 170 167 163 161 160 161 162 162 161 162 167 173 171 166 159 157 156 156 154 153 151 149 147 146 147 147 145 141 139 138 136 134 131 128 125 124 124 126 126 126 128 129 129 130 131 132 132 133 134 135 135 136
299 291 279 271 274 277 279 279 261 226 198 184 178 175 173 171 169 166 163 159 157 157 156 156 158 159 162 166 172 171 164 156 154 152 152 152 151 150 147 145 145 146 146 144 141 139 138 137 135 132 130 126 126 127 127 126 126 127 128 128 129 130 130 130 131 132 133 134 135
303 298 289 275 271 270 270 270 257 228 200 184 177 173 169 165 164 162 159 156 156 155 154 153 156 158 160 164 168 166 160 154 151 150 150 150 150 148 146 144 144 145 144 143 141 140 139 138 136 134 132 129 130 130 129 128 128 128 128 128 127 128 129 128 129 130 131 133 135
303 300 296 286 272 263 258 257 248 228 203 186 178 172 166 162 162 160 159 157 156 153 152 151 153 154 156 159 160 159 155 152 149 148 147 148 147 146 145 143 143 143 144 144 142 141 140 139 137 135 133 130 131 131 131 130 130 129 129 128 127 127 127 127 128 129 132 135 137
299 298 295 289 275 260 248 243 236 222 204 189 180 172 166 162 161 159 157 156 155 153 150 150 150 150 150 153 153 153 152 151 147 145 144 144 143 144 143 142 142 142 143 144 143 142 141 140 138 136 133 130 132 132 132 132 132 132 132 132 131 130 129 128 129 131 135 138 140
295 293 290 286 275 260 243 233 226 215 204 193 183 175 167 163 160 157 156 156 156 154 150 148 148 147 147 147 148 149 149 148 145 143 140 139 140 141 142 140 140 141 143 145 144 143 141 141 139 138 135 132 133 134 134 134 134 136 137 138 137 135 134 133 133 135 138 141 143